| time (UTC) | temp F | wind direction | speed MPH | gust MPH | rain 1hr in | rain 24hr in | rain mn in | humidity % | barometer mb |
| 20260504035334 | 57 | 215 | 8.0 | 14.0 | 0.00 | 0.00 | 0.00 | 64 | 1016.3 |
| 20260504034833 | 57 | 215 | 7.0 | 14.0 | 0.00 | 0.00 | 0.00 | 64 | 1016.2 |
| 20260504034329 | 57 | 178 | 7.0 | 13.0 | 0.00 | 0.00 | 0.00 | 64 | 1016.2 |
| 20260504033830 | 57 | 173 | 7.0 | 13.0 | 0.00 | 0.00 | 0.00 | 63 | 1016.2 |
| 20260504032829 | 57 | 208 | 7.0 | 11.0 | 0.00 | 0.00 | 0.00 | 63 | 1016.1 |
| 20260504031830 | 57 | 219 | 7.0 | 11.0 | 0.00 | 0.00 | 0.00 | 62 | 1016.1 |
| 20260504031329 | 57 | 175 | 7.0 | 11.0 | 0.00 | 0.00 | 0.00 | 62 | 1016.1 |
| 20260504030830 | 57 | 180 | 5.0 | 8.0 | 0.00 | 0.00 | 0.00 | 61 | 1016.1 |
| 20260504030328 | 57 | 192 | 6.0 | 11.0 | 0.00 | 0.00 | 0.00 | 61 | 1016.0 |
| 20260504025829 | 57 | 186 | 7.0 | 11.0 | 0.00 | 0.00 | 0.00 | 60 | 1016.0 |
| 20260504025330 | 57 | 202 | 6.0 | 9.0 | 0.00 | 0.00 | 0.00 | 60 | 1016.1 |
| 20260504024829 | 57 | 176 | 6.0 | 10.0 | 0.00 | 0.00 | 0.00 | 61 | 1016.1 |
| 20260504024329 | 56 | 194 | 7.0 | 12.0 | 0.00 | 0.00 | 0.00 | 60 | 1016.1 |
| 20260504023829 | 56 | 211 | 6.0 | 12.0 | 0.00 | 0.00 | 0.00 | 59 | 1016.1 |
| 20260504023329 | 56 | 198 | 5.0 | 9.0 | 0.00 | 0.00 | 0.00 | 62 | 1016.1 |
| 20260504021329 | 54 | 252 | 5.0 | 8.0 | 0.00 | 0.00 | 0.00 | 64 | 1016.1 |
| 20260504015830 | 52 | 257 | 4.0 | 8.0 | 0.00 | 0.00 | 0.00 | 67 | 1016.1 |
| 20260504015330 | 51 | 213 | 2.0 | 4.0 | 0.00 | 0.00 | 0.00 | 65 | 1016.1 |
| 20260504014830 | 51 | 234 | 1.0 | 3.0 | 0.00 | 0.00 | 0.00 | 66 | 1016.1 |
| 20260504013829 | 51 | 216 | 2.0 | 3.0 | 0.00 | 0.00 | 0.00 | 66 | 1016.0 |
| 20260504013330 | 51 | 223 | 1.0 | 2.0 | 0.00 | 0.00 | 0.00 | 66 | 1016.0 |
| 20260504012829 | 51 | 277 | 1.0 | 2.0 | 0.00 | 0.00 | 0.00 | 66 | 1016.0 |
| 20260504012328 | 51 | 281 | 1.0 | 2.0 | 0.00 | 0.00 | 0.00 | 64 | 1015.9 |
| 20260504011823 | 52 | 281 | 2.0 | 2.0 | 0.00 | 0.00 | 0.00 | 64 | 1015.8 |
| 20260504011320 | 52 | 286 | 0.0 | 2.0 | 0.00 | 0.00 | 0.00 | 62 | 1015.7 |
| 20260504010816 | 53 | 286 | 1.0 | 2.0 | 0.00 | 0.00 | 0.00 | 62 | 1015.8 |
| 20260504010312 | 53 | 286 | 0.0 | 2.0 | 0.00 | 0.00 | 0.00 | 60 | 1015.7 |
| 20260504005301 | 54 | 286 | 1.0 | 2.0 | 0.00 | 0.00 | 0.00 | 60 | 1015.7 |
| 20260504003801 | 56 | 311 | 0.0 | 0.0 | 0.00 | 0.00 | 0.00 | 50 | 1015.4 |
| 20260504003302 | 56 | 311 | 0.0 | 0.0 | 0.00 | 0.00 | 0.00 | 49 | 1015.3 |
| 20260504002801 | 56 | 311 | 0.0 | 1.0 | 0.00 | 0.00 | 0.00 | 47 | 1015.3 |
| 20260504001800 | 57 | 318 | 0.0 | 0.0 | 0.00 | 0.00 | 0.00 | 45 | 1015.2 |
| 20260504001302 | 58 | 318 | 0.0 | 0.0 | 0.00 | 0.00 | 0.00 | 44 | 1015.1 |
| 20260504000802 | 58 | 318 | 0.0 | 0.0 | 0.00 | 0.00 | 0.00 | 44 | 1015.1 |
| 20260503235804 | 59 | 318 | 0.0 | 1.0 | 0.00 | 0.00 | 0.00 | 41 | 1014.9 |
| 20260503235304 | 60 | 318 | 0.0 | 1.0 | 0.00 | 0.00 | 0.00 | 41 | 1014.9 |
| 20260503234303 | 60 | 74 | 0.0 | 1.0 | 0.00 | 0.00 | 0.00 | 40 | 1014.8 |
| 20260503233801 | 61 | 74 | 0.0 | 3.0 | 0.00 | 0.00 | 0.00 | 39 | 1014.8 |
| 20260503233301 | 61 | 74 | 1.0 | 3.0 | 0.00 | 0.00 | 0.00 | 39 | 1014.7 |
| 20260503232802 | 61 | 38 | 1.0 | 3.0 | 0.00 | 0.00 | 0.00 | 38 | 1014.7 |
| 20260503232257 | 61 | 47 | 1.0 | 2.0 | 0.00 | 0.00 | 0.00 | 39 | 1014.8 |
| 20260503231250 | 61 | 18 | 0.0 | 0.0 | 0.00 | 0.00 | 0.00 | 38 | 1014.8 |
| 20260503230745 | 61 | 18 | 0.0 | 2.0 | 0.00 | 0.00 | 0.00 | 38 | 1014.7 |
| 20260503230241 | 61 | 18 | 0.0 | 2.0 | 0.00 | 0.00 | 0.00 | 38 | 1014.8 |
| 20260503225239 | 61 | 338 | 1.0 | 3.0 | 0.00 | 0.00 | 0.00 | 38 | 1014.7 |
| 20260503223731 | 61 | 333 | 2.0 | 6.0 | 0.00 | 0.00 | 0.00 | 37 | 1014.7 |
| 20260503223230 | 61 | 352 | 4.0 | 6.0 | 0.00 | 0.00 | 0.00 | 37 | 1014.7 |
| 20260503222731 | 61 | 350 | 4.0 | 7.0 | 0.00 | 0.00 | 0.00 | 37 | 1014.6 |
| 20260503222229 | 61 | 336 | 4.0 | 9.0 | 0.00 | 0.00 | 0.00 | 37 | 1014.7 |
| 20260503221729 | 61 | 334 | 6.0 | 9.0 | 0.00 | 0.00 | 0.00 | 35 | 1014.7 |
| 20260503221228 | 61 | 40 | 3.0 | 6.0 | 0.00 | 0.00 | 0.00 | 36 | 1014.8 |
| 20260503220729 | 61 | 317 | 4.0 | 12.0 | 0.00 | 0.00 | 0.00 | 36 | 1014.7 |
| 20260503215730 | 62 | 329 | 7.0 | 15.0 | 0.00 | 0.00 | 0.00 | 30 | 1014.7 |
| 20260503215229 | 62 | 305 | 9.0 | 15.0 | 0.00 | 0.00 | 0.00 | 30 | 1014.6 |
| 20260503214729 | 62 | 309 | 5.0 | 13.0 | 0.00 | 0.00 | 0.00 | 31 | 1014.6 |
| 20260503213729 | 61 | 290 | 3.0 | 13.0 | 0.00 | 0.00 | 0.00 | 31 | 1014.4 |
| 20260503213229 | 61 | 340 | 7.0 | 13.0 | 0.00 | 0.00 | 0.00 | 31 | 1014.7 |
| 20260503212730 | 61 | 306 | 9.0 | 11.0 | 0.00 | 0.00 | 0.00 | 30 | 1014.7 |
| 20260503212229 | 61 | 292 | 4.0 | 11.0 | 0.00 | 0.00 | 0.00 | 33 | 1014.6 |
| 20260503211232 | 61 | 54 | 5.0 | 10.0 | 0.00 | 0.00 | 0.00 | 36 | 1014.5 |
| 20260503210729 | 61 | 32 | 5.0 | 10.0 | 0.00 | 0.00 | 0.00 | 35 | 1014.5 |
| 20260503210229 | 61 | 300 | 7.0 | 10.0 | 0.00 | 0.00 | 0.00 | 35 | 1014.6 |
| 20260503205729 | 61 | 352 | 5.0 | 14.0 | 0.00 | 0.00 | 0.00 | 35 | 1014.5 |
| 20260503205229 | 61 | 318 | 10.0 | 17.0 | 0.00 | 0.00 | 0.00 | 32 | 1014.5 |
| 20260503204728 | 61 | 318 | 12.0 | 17.0 | 0.00 | 0.00 | 0.00 | 30 | 1014.4 |
| 20260503204229 | 61 | 305 | 6.0 | 18.0 | 0.00 | 0.00 | 0.00 | 30 | 1014.4 |
| 20260503203229 | 61 | 327 | 12.0 | 19.0 | 0.00 | 0.00 | 0.00 | 30 | 1014.5 |
| 20260503202729 | 60 | 349 | 5.0 | 16.0 | 0.00 | 0.00 | 0.00 | 33 | 1014.5 |
| 20260503201729 | 60 | 315 | 10.0 | 17.0 | 0.00 | 0.00 | 0.00 | 30 | 1014.5 |
| 20260503201229 | 60 | 291 | 9.0 | 18.0 | 0.00 | 0.00 | 0.00 | 31 | 1014.7 |
| 20260503195729 | 60 | 326 | 10.0 | 18.0 | 0.00 | 0.00 | 0.00 | 32 | 1014.7 |
| 20260503194228 | 60 | 349 | 11.0 | 18.0 | 0.00 | 0.00 | 0.00 | 32 | 1014.8 |
| 20260503193730 | 60 | 307 | 10.0 | 18.0 | 0.00 | 0.00 | 0.00 | 31 | 1015.1 |
| 20260503192730 | 60 | 282 | 9.0 | 16.0 | 0.00 | 0.00 | 0.00 | 33 | 1015.1 |
| 20260503192230 | 59 | 321 | 6.0 | 15.0 | 0.00 | 0.00 | 0.00 | 33 | 1015.2 |
| 20260503191730 | 60 | 320 | 9.0 | 20.0 | 0.00 | 0.00 | 0.00 | 34 | 1015.3 |
| 20260503191230 | 60 | 298 | 14.0 | 20.0 | 0.00 | 0.00 | 0.00 | 33 | 1015.3 |
| 20260503190732 | 60 | 274 | 13.0 | 17.0 | 0.00 | 0.00 | 0.00 | 34 | 1015.3 |
| 20260503185731 | 59 | 340 | 9.0 | 15.0 | 0.00 | 0.00 | 0.00 | 34 | 1015.5 |
| 20260503185230 | 59 | 301 | 12.0 | 15.0 | 0.00 | 0.00 | 0.00 | 34 | 1015.5 |
| 20260503184729 | 58 | 22 | 9.0 | 17.0 | 0.00 | 0.00 | 0.00 | 34 | 1015.5 |
| 20260503184229 | 58 | 298 | 11.0 | 17.0 | 0.00 | 0.00 | 0.00 | 34 | 1015.7 |
| 20260503183729 | 59 | 345 | 11.0 | 16.0 | 0.00 | 0.00 | 0.00 | 34 | 1015.5 |
| 20260503182229 | 58 | 293 | 9.0 | 15.0 | 0.00 | 0.00 | 0.00 | 35 | 1015.7 |
| 20260503181728 | 58 | 312 | 7.0 | 15.0 | 0.00 | 0.00 | 0.00 | 36 | 1015.7 |
| 20260503181229 | 58 | 305 | 10.0 | 16.0 | 0.00 | 0.00 | 0.00 | 35 | 1015.7 |
| 20260503180729 | 58 | 307 | 11.0 | 16.0 | 0.00 | 0.00 | 0.00 | 35 | 1015.9 |
| 20260503175728 | 57 | 312 | 7.0 | 15.0 | 0.00 | 0.00 | 0.00 | 38 | 1015.9 |
| 20260503175228 | 57 | 5 | 10.0 | 15.0 | 0.00 | 0.00 | 0.00 | 37 | 1016.0 |
| 20260503174729 | 57 | 320 | 7.0 | 15.0 | 0.00 | 0.00 | 0.00 | 38 | 1016.0 |
| 20260503174230 | 56 | 307 | 13.0 | 18.0 | 0.00 | 0.00 | 0.00 | 38 | 1016.0 |
| 20260503173729 | 56 | 297 | 11.0 | 18.0 | 0.00 | 0.00 | 0.00 | 39 | 1016.1 |
| 20260503173229 | 56 | 307 | 6.0 | 17.0 | 0.00 | 0.00 | 0.00 | 39 | 1016.1 |
| 20260503172728 | 56 | 9 | 8.0 | 18.0 | 0.00 | 0.00 | 0.00 | 40 | 1016.2 |
| 20260503172229 | 56 | 0 | 5.0 | 19.0 | 0.00 | 0.00 | 0.00 | 42 | 1016.2 |
| 20260503170229 | 55 | 5 | 10.0 | 20.0 | 0.00 | 0.00 | 0.00 | 38 | 1016.2 |
| 20260503160201 | 53 | 348 | 13.0 | 19.0 | 0.00 | 0.00 | 0.00 | 40 | 1016.7 |
| 20260503150202 | 52 | 310 | 12.0 | 21.0 | 0.00 | 0.00 | 0.00 | 40 | 1016.7 |
| 20260503140129 | 51 | 325 | 11.0 | 21.0 | 0.00 | 0.00 | 0.00 | 44 | 1016.6 |
| 20260503130134 | 50 | 335 | 5.0 | 17.0 | 0.00 | 0.00 | 0.00 | 54 | 1016.4 |
| 20260503120105 | 48 | 297 | 11.0 | 21.0 | 0.00 | 0.00 | 0.00 | 58 | 1015.9 |
| 20260503110601 | 47 | 296 | 9.0 | 14.0 | 0.00 | 0.00 | 0.00 | 63 | 1015.4 |
| 20260503081601 | 51 | 314 | 9.0 | 15.0 | 0.00 | 0.00 | 0.00 | 52 | 1013.1 |
| 20260503081101 | 51 | 352 | 8.0 | 16.0 | 0.00 | 0.00 | 0.00 | 52 | 1012.9 |
| 20260503080601 | 51 | 341 | 9.0 | 16.0 | 0.00 | 0.00 | 0.00 | 52 | 1013.0 |
| 20260503072603 | 52 | 331 | 11.0 | 17.0 | 0.00 | 0.00 | 0.00 | 52 | 1012.5 |
| 20260503072102 | 52 | 340 | 8.0 | 13.0 | 0.00 | 0.00 | 0.00 | 53 | 1012.4 |
| 20260503071602 | 52 | 328 | 7.0 | 13.0 | 0.00 | 0.00 | 0.00 | 53 | 1012.4 |
| 20260503071102 | 52 | 342 | 6.0 | 14.0 | 0.00 | 0.00 | 0.00 | 53 | 1012.3 |
| 20260503070603 | 52 | 0 | 11.0 | 15.0 | 0.00 | 0.00 | 0.00 | 54 | 1012.3 |
| 20260503055105 | 53 | 350 | 8.0 | 13.0 | 0.00 | 0.00 | 0.00 | 56 | 1011.9 |
| 20260503054602 | 53 | 306 | 7.0 | 15.0 | 0.00 | 0.00 | 0.00 | 57 | 1011.9 |
| 20260503054101 | 53 | 22 | 6.0 | 15.0 | 0.00 | 0.00 | 0.00 | 58 | 1011.8 |
| 20260503053602 | 53 | 346 | 8.0 | 14.0 | 0.00 | 0.00 | 0.00 | 59 | 1011.9 |
| 20260503053102 | 52 | 337 | 4.0 | 9.0 | 0.00 | 0.00 | 0.00 | 61 | 1011.9 |
| 20260503052601 | 52 | 322 | 6.0 | 9.0 | 0.00 | 0.00 | 0.00 | 63 | 1012.0 |
| 20260503052101 | 51 | 340 | 4.0 | 6.0 | 0.00 | 0.00 | 0.00 | 64 | 1011.8 |
| 20260503051601 | 51 | 307 | 3.0 | 4.0 | 0.00 | 0.00 | 0.00 | 66 | 1011.8 |
| 20260503050604 | 51 | 297 | 3.0 | 6.0 | 0.00 | 0.00 | 0.00 | 66 | 1011.9 |
| 20260503045601 | 51 | 298 | 3.0 | 5.0 | 0.00 | 0.00 | 0.00 | 67 | 1012.0 |
| 20260503044101 | 51 | 317 | 3.0 | 6.0 | 0.00 | 0.00 | 0.00 | 69 | 1011.9 |
| 20260503043601 | 51 | 309 | 4.0 | 6.0 | 0.00 | 0.00 | 0.00 | 70 | 1011.9 |
| 20260503043101 | 50 | 319 | 3.0 | 5.0 | 0.00 | 0.00 | 0.00 | 71 | 1011.8 |
| 20260503042602 | 51 | 292 | 3.0 | 5.0 | 0.00 | 0.00 | 0.00 | 71 | 1011.9 |
| 20260503041600 | 51 | 294 | 3.0 | 5.0 | 0.00 | 0.00 | 0.00 | 70 | 1011.9 |
| 20260503041100 | 51 | 292 | 3.0 | 4.0 | 0.00 | 0.00 | 0.00 | 70 | 1011.8 |
| 20260503040603 | 51 | 301 | 2.0 | 5.0 | 0.00 | 0.00 | 0.00 | 69 | 1011.8 |
| 20260503035601 | 51 | 321 | 3.0 | 5.0 | 0.00 | 0.00 | 0.00 | 70 | 1011.8 |